Saint Francisville, IL

7:43 AM CDT on August 26, 2016 (GMT -0500)
Mount Carmel Municipal

Weather History for KAJG - February, 2014

Change the Weather History Date:

Sunday, February 9, 2014

  Actual Average (KLWV) Record (KLWV)
Temperature  
Mean Temperature 24 °F 34 °F  
Max Temperature 28 °F 42 °F 68 °F (2009)
Min Temperature 19 °F 26 °F 9 °F (2011)
Degree Days  
Heating Degree Days 42 31  
Month to date heating degree days 288  
Since 1 July heating degree days 3139  
Cooling Degree Days 0 0  
Month to date cooling degree days 0  
Year to date cooling degree days 0  
Moisture  
Dew Point 20 °F    
Average Humidity 79    
Maximum Humidity 93    
Minimum Humidity 68    
Precipitation  
Precipitation 0.00 in 0.08 in 0.67 in (2001)
Month to date precipitation 0.68  
Year to date precipitation 3.06  
Sea Level Pressure  
Sea Level Pressure 30.21 in    
Wind  
Wind Speed 4 mph (NW)    
Max Wind Speed 13 mph    
Max Gust Speed 18 mph    
Visibility 8 miles    
Events Snow    
T = Trace of Precipitation, MM = Missing Value Source: NWS Daily Summary

Daily Weather History Graph

Daily Weather History Graph

Search for Another Location

Airport or City:

Trip Planner

Search our weather history database for the weather conditions in past years. The results will help you decide how hot, cold, wet, or windy it might be!

Date:

Astronomy

Feb. 09, 2014 Rise Set
Actual Time 6:48 AM CST 5:22 PM CST
Civil Twilight 6:21 AM CST 5:49 PM CST
Nautical Twilight 5:49 AM CST 6:20 PM CST
Astronomical Twilight 5:18 AM CST 6:51 PM CST
Moon 1:03 PM CST (2/9) 2:52 AM CST (2/9)
Length of Visible Light 11h 28m
Length of Day
10h 33m
Waxing Gibbous, 77% of the Moon is Illuminated
Feb 9
Waxing Gibbous
Feb 14
Full
Feb 22
Last Quarter
Mar 1
New
Mar 8
First Quarter

Hourly Weather History & Observations

Time (CST) Temp. Windchill Dew Point Humidity Pressure Visibility Wind Dir Wind Speed Gust Speed Precip Events Conditions
12:15 AM 28.4 °F - 26.6 °F 93% 30.15 in 5.0 mi Calm Calm - N/A   Overcast
12:35 AM 28.4 °F - 26.6 °F 93% 30.15 in 4.0 mi Calm Calm - N/A   Overcast
12:55 AM 28.4 °F - 26.6 °F 93% 30.15 in 3.0 mi Calm Calm - N/A   Overcast
1:15 AM 28.4 °F - 26.6 °F 93% 30.14 in 2.0 mi Calm Calm - N/A   Overcast
1:35 AM 28.4 °F - 26.6 °F 93% 30.15 in 2.0 mi Calm Calm - N/A   Overcast
1:55 AM 28.4 °F - 26.6 °F 93% 30.15 in 2.0 mi Calm Calm - N/A   Overcast
2:15 AM 28.4 °F - 26.6 °F 93% 30.16 in 2.0 mi Calm Calm - N/A   Overcast
2:35 AM 28.4 °F - 26.6 °F 93% 30.16 in 1.8 mi Calm Calm - N/A   Overcast
2:55 AM 28.4 °F - 26.6 °F 93% 30.15 in 2.5 mi Calm Calm - N/A   Overcast
3:15 AM 28.4 °F - 26.6 °F 93% 30.14 in 4.0 mi Calm Calm - N/A   Overcast
3:35 AM 28.4 °F - 26.6 °F 93% 30.14 in 5.0 mi Calm Calm - N/A   Overcast
3:55 AM 28.4 °F - 26.6 °F 93% 30.14 in 7.0 mi Calm Calm - N/A   Overcast
4:15 AM 26.6 °F - 23.0 °F 86% 30.13 in 10.0 mi Calm Calm - N/A   Overcast
4:35 AM 26.6 °F - 23.0 °F 86% 30.13 in 10.0 mi Calm Calm - N/A   Overcast
4:55 AM 26.6 °F - 23.0 °F 86% 30.13 in 10.0 mi Calm Calm - N/A   Overcast
5:15 AM 26.6 °F - 23.0 °F 86% 30.14 in 10.0 mi Calm Calm - N/A   Overcast
5:35 AM 26.6 °F - 23.0 °F 86% 30.14 in 10.0 mi Calm Calm - N/A   Overcast
5:55 AM 26.6 °F - 23.0 °F 86% 30.14 in 10.0 mi Calm Calm - N/A   Overcast
6:15 AM 26.6 °F - 21.2 °F 80% 30.14 in 10.0 mi Calm Calm - N/A   Overcast
6:35 AM 26.6 °F - 21.2 °F 80% 30.16 in 10.0 mi Calm Calm - N/A   Overcast
6:55 AM 26.6 °F - 21.2 °F 80% 30.17 in 10.0 mi Calm Calm - N/A   Overcast
7:15 AM 26.6 °F - 21.2 °F 80% 30.14 in 7.0 mi Calm Calm - N/A   Mostly Cloudy
7:35 AM 26.6 °F - 21.2 °F 80% 30.15 in 7.0 mi Calm Calm - N/A   Mostly Cloudy
7:55 AM 26.6 °F - 21.2 °F 80% 30.19 in 7.0 mi Calm Calm - N/A   Mostly Cloudy
8:15 AM 26.6 °F - 21.2 °F 80% 30.19 in 7.0 mi Calm Calm - N/A   Overcast
8:35 AM 26.6 °F 19.1 °F 21.2 °F 80% 30.19 in 7.0 mi NW 6.9 mph - N/A   Overcast
8:55 AM 26.6 °F 20.0 °F 23.0 °F 86% 30.19 in 7.0 mi NNW 5.8 mph - N/A   Overcast
9:15 AM 26.6 °F 19.1 °F 23.0 °F 86% 30.20 in 5.0 mi NW 6.9 mph - N/A Snow Light Snow
9:35 AM 28.4 °F 22.2 °F 23.0 °F 80% 30.18 in 7.0 mi West 5.8 mph - N/A   Mostly Cloudy
9:55 AM 28.4 °F 19.1 °F 23.0 °F 80% 30.19 in 7.0 mi WNW 10.4 mph - N/A   Overcast
10:15 AM 28.4 °F 21.2 °F 23.0 °F 80% 30.20 in 10.0 mi NW 6.9 mph - N/A   Mostly Cloudy
10:35 AM 28.4 °F 18.0 °F 21.2 °F 74% 30.22 in 10.0 mi WNW 12.7 mph - N/A   Overcast
10:55 AM 28.4 °F 19.1 °F 21.2 °F 74% 30.20 in 7.0 mi NW 10.4 mph - N/A   Overcast
11:15 AM 28.4 °F 19.1 °F 21.2 °F 74% 30.19 in 10.0 mi NNW 10.4 mph - N/A   Overcast
11:35 AM 28.4 °F 18.5 °F 21.2 °F 74% 30.19 in 10.0 mi NNW 11.5 mph 18.4 mph N/A   Overcast
11:55 AM 28.4 °F 18.0 °F 21.2 °F 74% 30.18 in 10.0 mi WNW 12.7 mph - N/A   Mostly Cloudy
12:15 PM 28.4 °F 18.5 °F 21.2 °F 74% 30.17 in 10.0 mi WNW 11.5 mph - N/A   Mostly Cloudy
12:35 PM 28.4 °F 18.0 °F 19.4 °F 69% 30.17 in 10.0 mi NW 12.7 mph - N/A   Mostly Cloudy
12:55 PM 28.4 °F 19.1 °F 21.2 °F 74% 30.17 in 10.0 mi WNW 10.4 mph - N/A   Scattered Clouds
1:15 PM 28.4 °F 19.1 °F 21.2 °F 74% 30.17 in 10.0 mi NNW 10.4 mph - N/A   Overcast
1:35 PM 28.4 °F 18.0 °F 21.2 °F 74% 30.17 in 10.0 mi NW 12.7 mph - N/A   Scattered Clouds
1:55 PM 28.4 °F 19.1 °F 19.4 °F 69% 30.17 in 10.0 mi NNW 10.4 mph - N/A   Mostly Cloudy
2:15 PM 28.4 °F 20.4 °F 19.4 °F 69% 30.19 in 10.0 mi NW 8.1 mph - N/A   Scattered Clouds
2:35 PM 28.4 °F 20.4 °F 19.4 °F 69% 30.19 in 10.0 mi NW 8.1 mph - N/A   Mostly Cloudy
2:55 PM 26.6 °F 16.8 °F 19.4 °F 74% 30.21 in 10.0 mi NNW 10.4 mph - N/A   Overcast
3:15 PM 26.6 °F 16.2 °F 19.4 °F 74% 30.22 in 10.0 mi NNW 11.5 mph - N/A   Overcast
3:35 PM 26.6 °F 16.2 °F 19.4 °F 74% 30.24 in 10.0 mi NNW 11.5 mph - N/A   Overcast
3:55 PM 26.6 °F 16.8 °F 19.4 °F 74% 30.25 in 10.0 mi NNW 10.4 mph - N/A   Overcast
4:15 PM 24.8 °F 15.3 °F 17.6 °F 74% 30.26 in 10.0 mi NNW 9.2 mph - N/A   Overcast
4:35 PM 24.8 °F 15.3 °F 17.6 °F 74% 30.26 in 10.0 mi NNW 9.2 mph - N/A   Overcast
4:55 PM 24.8 °F 16.9 °F 17.6 °F 74% 30.26 in 10.0 mi NNW 6.9 mph - N/A   Overcast
5:15 PM 24.8 °F 16.1 °F 17.6 °F 74% 30.26 in 10.0 mi North 8.1 mph - N/A   Overcast
5:35 PM 23.0 °F 14.7 °F 17.6 °F 80% 30.26 in 10.0 mi NNW 6.9 mph - N/A   Overcast
5:55 PM 23.0 °F 13.9 °F 17.6 °F 80% 30.27 in 10.0 mi NNW 8.1 mph - N/A   Overcast
6:15 PM 23.0 °F 14.7 °F 17.6 °F 80% 30.29 in 10.0 mi NW 6.9 mph - N/A   Overcast
6:35 PM 23.0 °F 13.1 °F 15.8 °F 74% 30.29 in 10.0 mi WNW 9.2 mph - N/A   Overcast
6:55 PM 23.0 °F 13.9 °F 15.8 °F 74% 30.30 in 10.0 mi WNW 8.1 mph - N/A   Overcast
7:15 PM 23.0 °F 13.1 °F 14.0 °F 68% 30.30 in 10.0 mi WNW 9.2 mph - N/A   Overcast
7:35 PM 21.2 °F 12.6 °F 14.0 °F 74% 30.29 in 10.0 mi NW 6.9 mph - N/A   Overcast
7:55 PM 21.2 °F 12.6 °F 14.0 °F 74% 30.29 in 10.0 mi NW 6.9 mph - N/A Snow Light Snow
8:15 PM 21.2 °F - 14.0 °F 74% 30.29 in 10.0 mi Calm Calm - N/A   Overcast
8:35 PM 21.2 °F 10.9 °F 15.8 °F 80% 30.30 in 10.0 mi NNW 9.2 mph - N/A   Overcast
8:55 PM 21.2 °F - 15.8 °F 80% 30.32 in 10.0 mi Calm Calm - N/A   Overcast
9:15 PM 21.2 °F 10.9 °F 14.0 °F 74% 30.31 in 10.0 mi NNW 9.2 mph - N/A   Overcast
9:35 PM 21.2 °F 11.7 °F 14.0 °F 74% 30.32 in 10.0 mi NNW 8.1 mph - N/A   Overcast
9:55 PM 21.2 °F 10.9 °F 14.0 °F 74% 30.32 in 10.0 mi NNW 9.2 mph - N/A   Overcast
10:15 PM 19.4 °F 9.5 °F 12.2 °F 74% 30.32 in 10.0 mi NNW 8.1 mph - N/A   Overcast
10:35 PM 19.4 °F 10.4 °F 12.2 °F 74% 30.33 in 10.0 mi NNW 6.9 mph - N/A   Overcast
10:55 PM 19.4 °F 9.5 °F 12.2 °F 74% 30.34 in 10.0 mi NW 8.1 mph - N/A   Overcast
11:15 PM 19.4 °F 8.6 °F 12.2 °F 74% 30.32 in 10.0 mi NNW 9.2 mph - N/A   Overcast
11:35 PM 19.4 °F 10.4 °F 10.4 °F 68% 30.32 in 10.0 mi North 6.9 mph - N/A   Overcast
11:55 PM 19.4 °F 8.6 °F 10.4 °F 68% 30.32 in 10.0 mi North 9.2 mph - N/A   Overcast